CZ-2D DEB (43105 NORAD) Tracking and Keplerian Element Data

This shows tracking and keplerian element data for the satellite.

Feedback or suggestion? Click here.




ElementValue
Catalog43105
NameCZ-2D DEB
Epoch Orbit448
Epoch Day38.67120947
Epoch Year2018
RAAN116.4492
Inclination97.6969
Eccentricity0.0049154
Argument of Perigee209.2381
Mean Anonmoly150.6235
Mean Motion15.20377267
Decay Rate1.259E-05
L11 43105U 18002G 18038.67120947 .00001259 00000-0 59512-4 0 9993
L22 43105 97.6969 116.4492 0049154 209.2381 150.6235 15.20377267 4484

Live tracking and technical data element details for CZ-2D DEB (NORAD 43105). CZ-2D DEB can be tracked NOW for your location showing map with azimuth and elevation plus other details from your city location.

Track the satellite on the map from your city or location and see movement details for azimuth, elevation, latitude, longitude, range, height, and movement on the map or in text.







IsCatalogInMostPopularTable: catalog: 43105, numindb: 150
Update: records affected: 1



GetName: 43105 CZ-2D DEB

Hit Count: updated at: Wed, 14 Nov 2018 11:14:43 GMT